TimePDT,TemperatureF,Dew PointF,Humidity,Sea Level PressureIn,VisibilityMPH,Wind Direction,Wind SpeedMPH,Gust SpeedMPH,PrecipitationIn,Events,Conditions,WindDirDegrees,DateUTC
12:53 AM,45.0,43.0,93,30.03,10.0,Calm,Calm,-,N/A,,Clear,0,2012-10-10 07:53:00
1:53 AM,45.0,44.1,97,30.04,9.0,Calm,Calm,-,N/A,,Clear,0,2012-10-10 08:53:00
2:53 AM,45.0,43.0,93,30.04,10.0,Calm,Calm,-,N/A,,Clear,0,2012-10-10 09:53:00
3:53 AM,44.1,42.1,93,30.03,10.0,Calm,Calm,-,N/A,,Clear,0,2012-10-10 10:53:00
4:53 AM,43.0,41.0,93,30.03,6.0,Calm,Calm,-,N/A,,Clear,0,2012-10-10 11:53:00
5:53 AM,41.0,41.0,100,30.02,7.0,Calm,Calm,-,N/A,,Clear,0,2012-10-10 12:53:00
6:30 AM,41.0,41.0,100,30.03,6.0,Calm,Calm,-,N/A,,Partly Cloudy,0,2012-10-10 13:30:00
6:53 AM,41.0,39.0,93,30.04,6.0,Calm,Calm,-,N/A,,Partly Cloudy,0,2012-10-10 13:53:00
7:44 AM,41.0,39.2,93,30.05,2.0,Calm,Calm,-,N/A,,Clear,0,2012-10-10 14:44:00
7:53 AM,41.0,41.0,100,30.05,6.0,Calm,Calm,-,N/A,,Clear,0,2012-10-10 14:53:00
8:53 AM,46.0,43.0,89,30.05,10.0,Calm,Calm,-,N/A,,Clear,0,2012-10-10 15:53:00
9:53 AM,50.0,45.0,83,30.05,10.0,Calm,Calm,-,N/A,,Clear,0,2012-10-10 16:53:00
10:53 AM,55.9,46.9,72,30.04,10.0,Calm,Calm,-,N/A,,Clear,0,2012-10-10 17:53:00
11:53 AM,60.1,46.9,62,30.01,10.0,East,3.5,-,N/A,,Clear,90,2012-10-10 18:53:00
12:53 PM,63.0,46.9,56,29.99,10.0,Calm,Calm,-,N/A,,Clear,0,2012-10-10 19:53:00
1:53 PM,66.0,46.9,50,29.97,10.0,NNW,3.5,-,N/A,,Clear,330,2012-10-10 20:53:00
2:53 PM,68.0,48.0,49,29.95,10.0,Calm,Calm,-,N/A,,Clear,0,2012-10-10 21:53:00
3:53 PM,69.1,46.9,45,29.93,10.0,Calm,Calm,-,N/A,,Clear,0,2012-10-10 22:53:00
4:53 PM,69.1,46.0,44,29.92,10.0,Calm,Calm,-,N/A,,Clear,0,2012-10-10 23:53:00
5:53 PM,68.0,48.9,50,29.91,10.0,ENE,4.6,-,N/A,,Clear,60,2012-10-11 00:53:00
6:53 PM,62.1,48.0,60,29.92,10.0,Calm,Calm,-,N/A,,Clear,0,2012-10-11 01:53:00
7:53 PM,55.9,48.0,75,29.93,10.0,Calm,Calm,-,N/A,,Clear,0,2012-10-11 02:53:00
8:53 PM,53.1,48.0,83,29.94,10.0,NNE,6.9,-,N/A,,Clear,20,2012-10-11 03:53:00
9:53 PM,52.0,46.9,83,29.95,10.0,NNE,4.6,-,N/A,,Clear,20,2012-10-11 04:53:00
10:53 PM,51.1,46.9,86,29.95,10.0,Calm,Calm,-,N/A,,Clear,0,2012-10-11 05:53:00
11:53 PM,48.9,46.0,90,29.96,10.0,Calm,Calm,-,N/A,,Clear,0,2012-10-11 06:53:00